Flag for U.S.A. Weather past 2 weeks in Norfolk, Virginia, U.S.A.

Now
72 °F

Scattered clouds.


Feels Like: 75 °F
Forecast: 68 / 80 °F
Wind: 13 mph from Northwest

Location: Norfolk Naval Air Station

Current Time: Jul 29, 2014 at 8:50:54 AM

Latest Report: Jul 29, 2014 at 7:59 AM


Visibility: 10 mi

Pressure: 29.92 "Hg

Humidity: 68%

Dew point: 61 °F

Location of NorfolkLocation

Historic Weather in Norfolk — Graph

°F

Norfolk temperature yesterday

Maximum temperature yesterday: 88 °F (at 12:59 PM)
Minimum temperature yesterday: 77 °F (at 11:59 PM)
Average temperature yesterday: 83 °F

Past Weeks' High & Low Weather Summary

 TemperatureHumidityPressure
High93 °F (Jul 14, 2:59 PM)94% (Jul 24, 7:59 PM)30.23 "Hg (Jul 24, 7:59 PM)
Low69 °F (Jul 18, 1:59 AM)38% (Jul 18, 3:59 PM)29.65 "Hg (Jul 28, 4:59 AM)
Average79 °F70%29.98 "Hg
* Reported Jul 14 7:59 AM — Jul 29 7:59 AM, Norfolk, Weather by CustomWeather, © 2014

Note: Actual official high and low records may vary slightly from our data, if they occured in-between our weather recording intervals... More about our weather records

Advertising

Norfolk weather history for previous 24 hours

 ConditionsComfort  
Time TempWeatherWind HumidityBarometerVisibility
7:59 AM
Jul 29
72 °FScattered clouds.13 mph68%29.92 "Hg10 mi
6:59 AM71 °FPassing clouds.10 mph68%29.91 "Hg10 mi
5:59 AM69 °FPassing clouds.9 mph73%29.90 "Hg10 mi
4:59 AM70 °FPassing clouds.9 mph71%29.88 "Hg10 mi
3:59 AM71 °FPassing clouds.10 mph66%29.85 "Hg10 mi
2:59 AM73 °FClear.12 mph62%29.85 "Hg10 mi
1:59 AM74 °FClear.13 mph56%29.84 "Hg10 mi
12:59 AM76 °FClear.15 mph54%29.83 "Hg10 mi
11:59 PM
Jul 28
77 °FClear.10 mph56%29.82 "Hg10 mi
10:59 PM78 °FPassing clouds.7 mph58%29.80 "Hg10 mi
9:59 PM80 °FPassing clouds.10 mph54%29.81 "Hg10 mi
8:59 PM81 °FScattered clouds.6 mph53%29.80 "Hg10 mi
7:59 PM83 °FScattered clouds.8 mph48%29.78 "Hg10 mi
6:59 PM84 °FBroken clouds.10 mph45%29.75 "Hg10 mi
5:59 PM85 °FBroken clouds.12 mph48%29.75 "Hg10 mi
4:59 PM85 °FBroken clouds.12 mph48%29.74 "Hg10 mi
3:59 PM86 °FBroken clouds.14 mph46%29.73 "Hg10 mi
2:59 PM88 °FScattered clouds.15 mph43%29.72 "Hg10 mi
1:59 PM88 °FScattered clouds.12 mph46%29.72 "Hg10 mi
12:59 PM88 °FScattered clouds.10 mph48%29.72 "Hg10 mi
11:59 AM87 °FPassing clouds.12 mph53%29.72 "Hg10 mi
10:59 AM86 °FPassing clouds.12 mph55%29.71 "Hg10 mi
9:59 AM84 °FPassing clouds.9 mph59%29.71 "Hg10 mi
8:59 AM83 °FPassing clouds.10 mph61%29.70 "Hg10 mi
Weather by CustomWeather, © 2014

See weather overviewHow to use our weather pages